EXPRESS-A4

Last updated on May 21, 2019, 3:10 a.m. UTC

1 27441U 02029A   19140.39665394 -.00000258  00000-0  00000+0 0  9996
2 27441   7.2112  52.3590 0014545  66.0612  47.4664  1.00275894 62057
UTC
Height (km)
Latitude
Longitude
Inclination
Orbital Period
UTC large
Height (km)
Speed (km/s)
/
Latitude / Longitude
Inclination (degrees)
Orbital Period (minutes)
Azimuth
Elevation
Range (km)
Doppler Factor
iOS Compass Heading
iOS Angle

Next 30 passes for location: Hong Kong

Rise time Rise Azimuth (degrees) Set time Set Azimuth (degrees) Duration Max altitude (degrees)

No matching passes for this satellites